Regional Weather Roundup
Issued by NWS

Home | Current Version | Previous Version | Graphics & Text | Print | Product List | Glossary On
Versions: 1 2 3 4 5 6 7 8 9 10 11 12 13 14 15 16 17 18 19 20 21 22 23 24 25 26 27 28 29 30 31 32 33 34 35 36 37 38 39 40 41 42 43 44 45 46 47 48 49 50
000
ASUS45 KSLC 201510
RWRUT

UTAH REGIONAL WEATHER ROUNDUP
NATIONAL WEATHER SERVICE SALT LAKE CITY UT
800 AM MST SAT DEC 20 2014

UTZ001>011-023>025-201600-

NORTHERN UTAH

CITY           SKY/WX    TMP DP  RH WIND       PRES   REMARKS
BRIGHAM CITY   CLOUDY    38  34  88 NE3       30.12S
HILL AFB       MIX PCPN  36  36 100 E3        30.10F FOG
LOGAN          CLOUDY    35  34  96 NE5       30.09S WCI  31
OGDEN          CLOUDY    37  36  96 E5        30.10S WCI  33
PROVO AIRPORT  CLOUDY    34  30  86 CALM      30.13S
SALT LAKE CITY MOCLDY    38  33  82 S8        30.10S WCI  32
VERNAL         MOCLDY    24  20  84 W5        30.16S WCI  18
WENDOVER       CLOUDY    28  23  80 CALM      30.10S
HEBER CITY     CLOUDY    32  30  93 CALM      30.10S
WEST JORDAN    CLOUDY    37  36  93 S6        30.10F WCI  33

$$

UTZ012>022-026-027-201600-

SOUTHERN/CENTRAL UTAH

CITY           SKY/WX    TMP DP  RH WIND       PRES   REMARKS
BLANDING       CLOUDY    27  26  96 CALM      30.25S
BRYCE CANYON   CLEAR     14  10  84 W8        30.15R WCI   3
CEDAR CITY     CLEAR     22  18  85 NE6       30.11F WCI  14
DELTA          PTCLDY    28  26  89 S6        30.12S WCI  22
MILFORD        CLEAR     29  23  78 SW3       30.11S
MOAB/CYNLANDS  CLEAR     30  28  92 NW3       30.18R
PRICE          CLOUDY    29  23  78 CALM      30.15S
ST GEORGE      MOSUNNY   34  28  80 NW5       30.18S WCI  30

$$

REGIONAL REPORTS     COLORADO/ARIZONA

CITY           SKY/WX    TMP DP  RH WIND       PRES   REMARKS
CRAIG, CO      CLOUDY    22  18  85 CALM      30.14F
GRAND JUNCTION CLOUDY    29  23  78 SE6       30.18F WCI  23
RIFLE          CLOUDY    26  21  81 CALM      30.20S
MONTROSE       CLOUDY    26  18  71 S9        30.20F WCI  17
CORTEZ         CLEAR     21  18  88 W5        30.18F WCI  15
PAGE, AZ       MOCLDY    34  28  79 S5        30.19S WCI  30
GRAND CANYON   CLEAR     18  15  88 CALM      30.18S
KINGMAN        CLEAR     29  26  89 SE3       30.14F
FLAGSTAFF      CLEAR     18  14  84 CALM      30.18R

$$

REGIONAL REPORTS    NEVADA/IDAHO/WYOMING

CITY           SKY/WX    TMP DP  RH WIND       PRES   REMARKS
LAS VEGAS, NV  CLOUDY    43  36  76 SW7       30.11F
ELY            CLOUDY    25  22  88 SE8       30.13R WCI  16
ELKO           CLOUDY    32  30  92 W3        30.06F FOG
POCATELLO, ID  CLOUDY    37  32  82 CALM      30.06S
BURLEY         CLOUDY    38  31  76 S14       30.03F WCI  30
EVANSTON, WY   CLOUDY    29  27  92 SW9       30.06S WCI  20
ROCK SPRINGS   CLOUDY    29  23  78 SW16      30.05S WCI  17
KEMMERER       CLOUDY    28  28 100 SW3       30.04F

$$


USA.gov is the U.S. government's official web portal to all federal, state and local government web resources and services.